TimeMST,TemperatureF,Dew PointF,Humidity,Sea Level PressureIn,VisibilityMPH,Wind Direction,Wind SpeedMPH,Gust SpeedMPH,PrecipitationIn,Events,Conditions,WindDirDegrees,DateUTC
12:51 AM,19.0,15.1,85,29.84,9.0,East,5.8,-,0.00,,Clear,90,2012-12-14 07:51:00
1:51 AM,18.0,14.0,84,29.85,10.0,SE,4.6,-,N/A,,Clear,130,2012-12-14 08:51:00
2:51 AM,17.1,12.0,81,29.83,10.0,ESE,5.8,-,N/A,,Clear,120,2012-12-14 09:51:00
3:51 AM,17.1,12.0,81,29.83,10.0,Calm,Calm,-,N/A,,Clear,0,2012-12-14 10:51:00
4:51 AM,16.0,10.9,81,29.83,10.0,Calm,Calm,-,N/A,,Clear,0,2012-12-14 11:51:00
5:51 AM,16.0,10.9,81,29.82,10.0,ESE,3.5,-,N/A,,Clear,120,2012-12-14 12:51:00
6:51 AM,16.0,10.0,77,29.82,10.0,ESE,3.5,-,N/A,,Clear,110,2012-12-14 13:51:00
8:51 AM,19.9,15.1,81,29.81,10.0,Calm,Calm,-,N/A,,Clear,0,2012-12-14 15:51:00
9:51 AM,28.0,21.9,78,29.79,10.0,Calm,Calm,-,N/A,,Clear,0,2012-12-14 16:51:00
10:51 AM,32.0,26.1,79,29.78,10.0,Calm,Calm,-,N/A,,Clear,0,2012-12-14 17:51:00
11:51 AM,37.9,28.0,68,29.73,10.0,Calm,Calm,-,N/A,,Clear,0,2012-12-14 18:51:00
12:51 PM,41.0,28.0,60,29.70,10.0,North,5.8,-,N/A,,Clear,350,2012-12-14 19:51:00
1:51 PM,44.1,28.9,55,29.67,10.0,NNW,3.5,-,N/A,,Clear,330,2012-12-14 20:51:00
2:51 PM,45.0,28.9,53,29.67,10.0,North,3.5,-,N/A,,Clear,360,2012-12-14 21:51:00
3:51 PM,39.0,27.0,62,29.70,10.0,Calm,Calm,-,N/A,,Clear,0,2012-12-14 22:51:00
4:51 PM,33.1,26.1,75,29.71,10.0,ESE,3.5,-,N/A,,Clear,110,2012-12-14 23:51:00
5:51 PM,30.9,24.1,76,29.72,10.0,Calm,Calm,-,N/A,,Clear,0,2012-12-15 00:51:00
6:51 PM,30.0,24.1,79,29.73,10.0,Calm,Calm,-,N/A,,Clear,0,2012-12-15 01:51:00
7:51 PM,25.0,19.0,78,29.74,10.0,SE,6.9,-,N/A,,Clear,140,2012-12-15 02:51:00
8:51 PM,21.9,17.1,82,29.75,10.0,Calm,Calm,-,N/A,,Clear,0,2012-12-15 03:51:00
9:51 PM,23.0,18.0,81,29.73,10.0,Calm,Calm,-,N/A,,Clear,0,2012-12-15 04:51:00
10:51 PM,19.9,15.1,81,29.74,10.0,WNW,5.8,-,N/A,,Clear,300,2012-12-15 05:51:00